GW0881 Weather Reports


Display with metric or nautical units.
time (UTC)temp
F
wind
direction
speed
MPH
gust
MPH
rain 1hr
in
rain 24hr
in
rain mn
in
humidity
%
barometer
mb
20260508164650 62 276 5.0 6.0 0.00 0.00 0.00 29 1004.6
20260508164147 62 17 5.0 6.0 0.00 0.00 0.00 31 1004.6
20260508163645 62 283 4.0 5.0 0.00 0.00 0.00 33 1004.7
20260508163142 61 339 3.0 3.0 0.00 0.00 0.00 34 1004.8
20260508162637 61 268 4.0 5.0 0.00 0.00 0.00 32 1004.8
20260508162135 60 256 4.0 5.0 0.00 0.00 0.00 33 1004.9
20260508161632 60 268 2.0 2.0 0.00 0.00 0.00 33 1004.9
20260508161129 60 297 6.0 7.0 0.00 0.00 0.00 34 1005.0
20260508160628 60 319 3.0 5.0 0.00 0.00 0.00 34 1005.0
20260508160125 59 240 2.0 2.0 0.00 0.00 0.00 33 1005.0
20260508155621 59 228 4.0 5.0 0.00 0.00 0.00 34 1004.9
20260508155118 59 237 1.0 2.0 0.00 0.00 0.00 36 1005.2
20260508154615 58 263 5.0 6.0 0.00 0.00 0.00 35 1005.1
20260508154112 57 244 3.0 3.0 0.00 0.00 0.00 36 1005.2
20260508153609 57 265 4.0 5.0 0.00 0.00 0.00 36 1005.3
20260508153106 57 243 3.0 3.0 0.00 0.00 0.00 37 1005.3
20260508152603 57 264 3.0 3.0 0.00 0.00 0.00 38 1005.4
20260508152058 57 266 2.0 2.0 0.00 0.00 0.00 40 1005.4
20260508151555 56 240 2.0 2.0 0.00 0.00 0.00 40 1005.4
20260508151052 55 282 4.0 5.0 0.00 0.00 0.00 40 1005.4
20260508150549 55 264 3.0 3.0 0.00 0.00 0.00 41 1005.6
20260508150045 55 281 3.0 3.0 0.00 0.00 0.00 40 1005.6
20260508145541 55 304 2.0 2.0 0.00 0.00 0.00 43 1005.8
20260508145038 54 224 1.0 1.0 0.00 0.00 0.00 42 1005.8
20260508144536 54 222 0.0 0.0 0.00 0.00 0.00 43 1005.7
20260508144033 54 225 2.0 2.0 0.00 0.00 0.00 42 1005.7
20260508143531 53 229 1.0 1.0 0.00 0.00 0.00 43 1005.8
20260508143027 53 269 3.0 3.0 0.00 0.00 0.00 43 1006.0
20260508142524 53 220 2.0 2.0 0.00 0.00 0.00 42 1006.0
20260508142020 53 228 1.0 2.0 0.00 0.00 0.00 43 1006.0
20260508141517 53 221 0.0 1.0 0.00 0.00 0.00 44 1006.3
20260508141015 53 240 2.0 2.0 0.00 0.00 0.00 45 1006.0
20260508140512 51 237 1.0 1.0 0.00 0.00 0.00 45 1006.3
20260508140008 50 225 0.0 0.0 0.00 0.00 0.00 50 1006.2
20260508135504 50 243 0.0 1.0 0.00 0.00 0.00 53 1006.2
20260508135000 49 202 0.0 0.0 0.00 0.00 0.00 52 1006.3
20260508134457 49 180 0.0 0.0 0.00 0.00 0.00 54 1006.3
20260508133954 48 217 0.0 0.0 0.00 0.00 0.00 54 1006.2
20260508133451 47 174 0.0 0.0 0.00 0.00 0.00 56 1006.4
20260508132948 47 152 0.0 0.0 0.00 0.00 0.00 61 1006.4
20260508132446 47 139 0.0 1.0 0.00 0.00 0.00 59 1006.4
20260508131942 48 58 1.0 1.0 0.00 0.00 0.00 55 1006.5
20260508131438 48 274 1.0 2.0 0.00 0.00 0.00 56 1006.5
20260508130935 47 158 1.0 1.0 0.00 0.00 0.00 58 1006.5
20260508130432 47 212 0.0 0.0 0.00 0.00 0.00 58 1006.4
20260508125927 46 226 0.0 0.0 0.00 0.00 0.00 56 1006.6
20260508125424 45 222 0.0 0.0 0.00 0.00 0.00 60 1006.6
20260508124922 44 149 1.0 1.0 0.00 0.00 0.00 60 1006.7
20260508124419 44 247 0.0 1.0 0.00 0.00 0.00 59 1006.5
20260508123917 43 160 0.0 0.0 0.00 0.00 0.00 58 1006.5
20260508123415 42 174 0.0 0.0 0.00 0.00 0.00 61 1006.6
20260508122911 42 209 0.0 0.0 0.00 0.00 0.00 60 1006.4
20260508122408 42 205 0.0 0.0 0.00 0.00 0.00 63 1006.6
20260508121905 41 218 0.0 0.0 0.00 0.00 0.00 61 1006.5
20260508121404 41 208 0.0 0.0 0.00 0.00 0.00 59 1006.4
20260508120901 41 202 0.0 0.0 0.00 0.00 0.00 61 1006.4
20260508120359 41 207 0.0 0.0 0.00 0.00 0.00 61 1006.3
20260508115856 40 207 0.0 0.0 0.00 0.00 0.00 60 1006.5
20260508115353 40 206 0.0 0.0 0.00 0.00 0.00 64 1006.5
20260508114849 40 208 0.0 0.0 0.00 0.00 0.00 61 1006.4
20260508114347 40 187 0.0 0.0 0.00 0.00 0.00 60 1006.0
20260508113843 39 186 0.0 0.0 0.00 0.00 0.00 62 1006.2
20260508113341 41 188 0.0 0.0 0.00 0.00 0.00 62 1006.2
20260508112838 42 208 0.0 0.0 0.00 0.00 0.00 57 1006.0
20260508112335 42 208 0.0 0.0 0.00 0.00 0.00 55 1006.0
20260508111831 42 207 0.0 0.0 0.00 0.00 0.00 55 1006.0
20260508111328 42 210 0.0 0.0 0.00 0.00 0.00 55 1006.2
20260508110826 42 208 0.0 0.0 0.00 0.00 0.00 55 1005.9
20260508110323 42 214 0.0 0.0 0.00 0.00 0.00 55 1006.0
20260508105823 42 212 0.0 0.0 0.00 0.00 0.00 55 1006.0
20260508105320 42 217 0.0 0.0 0.00 0.00 0.00 55 1006.3
20260508104817 42 208 0.0 1.0 0.00 0.00 0.00 55 1006.2
20260508104313 41 206 0.0 0.0 0.00 0.00 0.00 55 1006.2
20260508103811 41 207 0.0 0.0 0.00 0.00 0.00 55 1006.2
20260508103308 41 211 0.0 0.0 0.00 0.00 0.00 55 1006.2
20260508102806 42 214 0.0 0.0 0.00 0.00 0.00 55 1006.4
20260508102306 42 212 0.0 0.0 0.00 0.00 0.00 54 1006.2
20260508101800 42 207 0.0 0.0 0.00 0.00 0.00 54 1006.2
20260508101258 42 213 0.0 0.0 0.00 0.00 0.00 54 1006.4
20260508100755 42 217 0.0 0.0 0.00 0.00 0.00 54 1006.5
20260508100254 42 209 0.0 0.0 0.00 0.00 0.00 54 1006.3
20260508095749 42 216 0.0 0.0 0.00 0.00 0.00 54 1006.3
20260508095247 42 212 0.0 0.0 0.00 0.00 0.00 54 1006.5
20260508094743 42 218 0.0 0.0 0.00 0.00 0.00 53 1006.5
20260508094241 43 212 0.0 0.0 0.00 0.00 0.00 53 1006.4
20260508093737 43 216 0.0 0.0 0.00 0.00 0.00 52 1006.4
20260508093235 43 213 0.0 0.0 0.00 0.00 0.00 52 1006.6
20260508092732 43 214 0.0 1.0 0.00 0.00 0.00 52 1006.4
20260508092230 43 212 0.0 0.0 0.00 0.00 0.00 52 1006.4
20260508091728 43 217 0.0 1.0 0.00 0.00 0.00 52 1006.4
20260508091224 43 217 0.0 0.0 0.00 0.00 0.00 51 1006.4
20260508090722 43 219 0.0 1.0 0.00 0.00 0.00 51 1006.5
20260508090220 43 222 0.0 0.0 0.00 0.00 0.00 51 1006.6
20260508085715 43 217 0.0 0.0 0.00 0.00 0.00 51 1006.6
20260508085213 44 218 0.0 0.0 0.00 0.00 0.00 51 1006.4
20260508084709 44 217 0.0 0.0 0.00 0.00 0.00 51 1006.5
20260508084207 44 219 0.0 0.0 0.00 0.00 0.00 51 1006.6
20260508083704 44 221 1.0 1.0 0.00 0.00 0.00 51 1006.5
20260508083201 44 226 0.0 1.0 0.00 0.00 0.00 51 1006.7
20260508082656 44 208 0.0 0.0 0.00 0.00 0.00 52 1006.6
20260508082153 44 218 0.0 0.0 0.00 0.00 0.00 53 1006.6
20260508081651 44 217 0.0 0.0 0.00 0.00 0.00 53 1006.5
20260508081147 44 217 0.0 0.0 0.00 0.00 0.00 53 1006.5
20260508080645 44 225 1.0 1.0 0.00 0.00 0.00 53 1006.5
20260508080143 44 216 0.0 0.0 0.00 0.00 0.00 53 1006.7
20260508075639 44 216 0.0 0.0 0.00 0.00 0.00 53 1006.6
20260508075136 44 218 0.0 0.0 0.00 0.00 0.00 54 1006.6
20260508074634 44 217 1.0 1.0 0.00 0.00 0.00 53 1006.7
20260508074131 44 219 0.0 1.0 0.00 0.00 0.00 53 1006.7
20260508073628 44 216 0.0 0.0 0.00 0.00 0.00 53 1006.8
20260508073126 44 221 0.0 0.0 0.00 0.00 0.00 54 1006.8
20260508072621 45 218 0.0 0.0 0.00 0.00 0.00 54 1006.8
20260508072118 44 211 1.0 1.0 0.00 0.00 0.00 55 1006.6
20260508071616 44 217 0.0 0.0 0.00 0.00 0.00 55 1006.9
20260508071114 44 220 0.0 0.0 0.00 0.00 0.00 56 1007.0
20260508070611 44 220 0.0 1.0 0.00 0.00 0.00 55 1006.9
20260508070110 44 217 0.0 1.0 0.00 0.00 0.00 54 1006.9
20260508065606 44 210 0.0 1.0 0.00 0.00 0.00 53 1006.8
20260508065104 44 213 0.0 1.0 0.00 0.00 0.00 53 1007.0
20260508064602 42 215 1.0 1.0 0.00 0.00 0.00 55 1007.0
20260508064100 41 197 1.0 1.0 0.00 0.00 0.00 62 1007.0
20260508063556 41 201 0.0 0.0 0.00 0.00 0.00 61 1007.0
20260508063055 41 201 0.0 1.0 0.00 0.00 0.00 65 1007.0
20260508062552 41 199 0.0 1.0 0.00 0.00 0.00 65 1007.2
20260508062048 42 206 0.0 0.0 0.00 0.00 0.00 63 1007.0
20260508061546 42 197 0.0 1.0 0.00 0.00 0.00 60 1007.0
20260508061043 41 211 0.0 0.0 0.00 0.00 0.00 60 1007.2
20260508060540 40 205 1.0 1.0 0.00 0.00 0.00 68 1007.1
20260508060037 40 206 0.0 0.0 0.00 0.00 0.00 67 1007.4
20260508055532 40 201 0.0 0.0 0.00 0.00 0.00 68 1007.3
20260508055030 40 209 0.0 0.0 0.00 0.00 0.00 68 1007.2
20260508054526 39 207 0.0 0.0 0.00 0.00 0.00 69 1007.4
20260508054024 40 203 0.0 0.0 0.00 0.00 0.00 66 1007.2
20260508053520 40 209 0.0 0.0 0.00 0.00 0.00 67 1007.6
20260508053019 40 204 0.0 0.0 0.00 0.00 0.00 67 1007.4
20260508052515 40 205 0.0 0.0 0.00 0.00 0.00 68 1007.5
20260508052012 40 209 0.0 0.0 0.00 0.00 0.00 69 1007.4
20260508051508 40 214 0.0 0.0 0.00 0.00 0.00 69 1007.4
20260508051003 40 211 0.0 0.0 0.00 0.00 0.00 69 1007.6
20260508050500 40 205 0.0 0.0 0.00 0.00 0.00 67 1007.6
20260508045957 40 208 0.0 0.0 0.00 0.00 0.00 68 1007.6
20260508045454 40 205 0.0 0.0 0.00 0.00 0.00 67 1007.6
20260508044951 40 205 0.0 0.0 0.00 0.00 0.00 67 1007.7
20260508044449 40 208 0.0 0.0 0.00 0.00 0.00 68 1007.6
20260508043944 40 212 1.0 1.0 0.00 0.00 0.00 68 1007.6
20260508043442 40 211 0.0 0.0 0.00 0.00 0.00 67 1007.5
20260508042937 40 211 0.0 1.0 0.00 0.00 0.00 67 1007.8
20260508042436 40 214 0.0 0.0 0.00 0.00 0.00 68 1007.5
20260508041932 40 211 0.0 0.0 0.00 0.00 0.00 68 1007.8
20260508041429 41 212 0.0 0.0 0.00 0.00 0.00 70 1007.6
20260508040926 41 214 0.0 0.0 0.00 0.00 0.00 66 1007.7
20260508040423 41 209 0.0 0.0 0.00 0.00 0.00 64 1007.8
20260508035921 41 208 1.0 1.0 0.00 0.00 0.00 64 1007.8
20260508035417 41 209 0.0 1.0 0.00 0.00 0.00 63 1007.9
20260508034914 41 209 0.0 0.0 0.00 0.00 0.00 63 1007.9
20260508034411 42 209 0.0 1.0 0.00 0.00 0.00 65 1007.9
20260508033908 42 210 0.0 0.0 0.00 0.00 0.00 64 1007.9
20260508033406 42 216 0.0 0.0 0.00 0.00 0.00 64 1008.1
20260508032903 42 210 0.0 0.0 0.00 0.00 0.00 63 1007.9
20260508032401 42 202 0.0 0.0 0.00 0.00 0.00 62 1007.9
20260508031857 43 205 0.0 0.0 0.00 0.00 0.00 61 1008.1
20260508031354 43 207 1.0 1.0 0.00 0.00 0.00 58 1008.2
20260508030850 43 210 0.0 0.0 0.00 0.00 0.00 61 1007.9
20260508030347 43 217 0.0 0.0 0.00 0.00 0.00 62 1008.2
20260508025844 44 207 0.0 0.0 0.00 0.00 0.00 59 1008.1
20260508025341 44 203 0.0 0.0 0.00 0.00 0.00 56 1008.1
20260508024838 44 207 0.0 0.0 0.00 0.00 0.00 58 1008.0
20260508024334 44 209 0.0 0.0 0.00 0.00 0.00 62 1008.0
20260508023832 45 211 0.0 0.0 0.00 0.00 0.00 59 1008.1
20260508023328 45 204 0.0 0.0 0.00 0.00 0.00 56 1008.1
20260508022825 46 203 0.0 1.0 0.00 0.00 0.00 53 1007.9
20260508022321 47 208 1.0 1.0 0.00 0.00 0.00 49 1007.9
20260508021818 47 205 0.0 1.0 0.00 0.00 0.00 52 1007.9
20260508021314 48 204 1.0 1.0 0.00 0.00 0.00 49 1007.9
20260508020810 48 207 0.0 0.0 0.00 0.00 0.00 47 1007.9
20260508020308 46 210 1.0 1.0 0.00 0.00 0.00 51 1007.9
20260508015804 48 222 0.0 1.0 0.00 0.00 0.00 51 1007.8
20260508015305 49 205 0.0 0.0 0.00 0.00 0.00 47 1007.7
20260508014759 50 205 0.0 0.0 0.00 0.00 0.00 44 1007.5
20260508014256 51 205 0.0 0.0 0.00 0.00 0.00 42 1007.6
20260508013751 52 204 0.0 0.0 0.00 0.00 0.00 38 1007.5
20260508013248 53 216 0.0 0.0 0.00 0.00 0.00 37 1007.5
20260508012746 54 219 0.0 0.0 0.00 0.00 0.00 34 1007.5
20260508012242 54 217 1.0 1.0 0.00 0.00 0.00 34 1007.6
20260508011741 55 238 1.0 1.0 0.00 0.00 0.00 33 1007.4
20260508011238 55 249 1.0 1.0 0.00 0.00 0.00 32 1007.3
20260508010735 55 259 1.0 1.0 0.00 0.00 0.00 32 1007.4
20260508010233 56 246 1.0 1.0 0.00 0.00 0.00 32 1007.4
20260508005729 56 278 1.0 2.0 0.00 0.00 0.00 32 1007.2
20260508005226 56 318 3.0 3.0 0.00 0.00 0.00 32 1007.3
20260508004721 56 208 1.0 2.0 0.00 0.00 0.00 32 1007.4
20260508004218 56 249 2.0 2.0 0.00 0.00 0.00 32 1007.2
20260508003715 56 243 1.0 1.0 0.00 0.00 0.00 32 1007.2
20260508003212 56 258 1.0 1.0 0.00 0.00 0.00 32 1007.3
20260508002708 57 266 2.0 2.0 0.00 0.00 0.00 31 1007.4
20260508002206 57 214 2.0 3.0 0.00 0.00 0.00 31 1007.2
20260508001702 57 254 3.0 3.0 0.00 0.00 0.00 30 1007.3
20260508001158 57 296 3.0 5.0 0.00 0.00 0.00 31 1007.2
20260508000654 57 245 1.0 2.0 0.00 0.00 0.00 30 1007.3
20260508000151 57 273 5.0 5.0 0.00 0.00 0.00 29 1007.5
20260507235648 57 258 3.0 3.0 0.00 0.00 0.00 30 1007.2
20260507235145 57 268 3.0 3.0 0.00 0.00 0.00 30 1007.4
20260507234642 57 290 5.0 6.0 0.00 0.00 0.00 29 1007.6
20260507234138 57 286 3.0 3.0 0.00 0.00 0.00 30 1007.4
20260507233635 57 254 2.0 2.0 0.00 0.00 0.00 28 1007.4
20260507233134 57 274 3.0 3.0 0.00 0.00 0.00 29 1007.4
20260507232630 57 291 5.0 6.0 0.00 0.00 0.00 29 1007.5
20260507232127 57 326 3.0 3.0 0.00 0.00 0.00 29 1007.5
20260507231623 57 275 4.0 5.0 0.00 0.00 0.00 29 1007.4
20260507231121 57 282 2.0 2.0 0.00 0.00 0.00 29 1007.5
20260507230617 57 305 5.0 5.0 0.00 0.00 0.00 29 1007.4
20260507230114 57 293 6.0 7.0 0.00 0.00 0.00 28 1007.5
20260507225609 57 326 6.0 7.0 0.00 0.00 0.00 30 1007.6
20260507225106 57 265 5.0 5.0 0.00 0.00 0.00 30 1007.7
20260507224601 57 260 2.0 2.0 0.00 0.00 0.00 30 1007.6
20260507224058 57 262 3.0 3.0 0.00 0.00 0.00 28 1007.8
20260507223554 57 265 3.0 3.0 0.00 0.00 0.00 28 1007.6
20260507223051 57 281 8.0 10.0 0.00 0.00 0.00 27 1007.6
20260507222548 57 322 5.0 6.0 0.00 0.00 0.00 28 1007.6
20260507222045 57 331 5.0 6.0 0.00 0.00 0.00 28 1007.7
20260507221541 57 336 3.0 5.0 0.00 0.00 0.00 29 1008.0
20260507221038 57 286 7.0 8.0 0.00 0.00 0.00 28 1007.9
20260507220535 57 259 2.0 3.0 0.00 0.00 0.00 29 1008.1
20260507220033 57 299 4.0 6.0 0.00 0.00 0.00 28 1008.0
20260507215529 57 299 5.0 6.0 0.00 0.00 0.00 29 1008.0
20260507215027 57 276 5.0 6.0 0.00 0.00 0.00 28 1008.0
20260507214524 58 22 5.0 6.0 0.00 0.00 0.00 28 1008.0
20260507214020 57 274 3.0 5.0 0.00 0.00 0.00 28 1008.1
20260507213516 57 281 3.0 3.0 0.00 0.00 0.00 28 1008.1
20260507213013 56 238 2.0 3.0 0.00 0.00 0.00 28 1008.3
20260507212508 57 265 3.0 3.0 0.00 0.00 0.00 28 1008.2
20260507212006 57 296 5.0 7.0 0.00 0.00 0.00 28 1008.4
20260507211503 56 289 6.0 7.0 0.00 0.00 0.00 29 1008.5
20260507210959 56 246 3.0 5.0 0.00 0.00 0.00 30 1008.5
20260507210456 56 317 10.0 11.0 0.00 0.00 0.00 28 1008.5
20260507205952 56 300 5.0 6.0 0.00 0.00 0.00 30 1008.6
20260507205450 56 282 2.0 2.0 0.00 0.00 0.00 27 1008.5
20260507204946 55 239 3.0 3.0 0.00 0.00 0.00 30 1008.6
20260507204442 55 274 5.0 6.0 0.00 0.00 0.00 29 1008.7
20260507203940 56 308 6.0 8.0 0.00 0.00 0.00 28 1008.9
20260507203438 56 244 2.0 2.0 0.00 0.00 0.00 29 1008.8
20260507202934 55 282 3.0 5.0 0.00 0.00 0.00 30 1009.0
20260507202431 55 270 3.0 5.0 0.00 0.00 0.00 29 1008.8
20260507201926 55 338 5.0 6.0 0.00 0.00 0.00 29 1009.2
20260507201421 55 228 1.0 1.0 0.00 0.00 0.00 28 1009.0
20260507200919 55 253 5.0 6.0 0.00 0.00 0.00 29 1009.2
20260507200414 55 268 6.0 7.0 0.00 0.00 0.00 29 1009.4
20260507195910 54 255 2.0 2.0 0.00 0.00 0.00 29 1009.1
20260507195408 55 267 2.0 3.0 0.00 0.00 0.00 28 1009.3
20260507194905 55 265 4.0 5.0 0.00 0.00 0.00 28 1009.4
20260507194401 54 234 2.0 2.0 0.00 0.00 0.00 28 1009.5
20260507193857 54 285 5.0 6.0 0.00 0.00 0.00 30 1009.3
20260507193355 53 36 6.0 7.0 0.00 0.00 0.00 31 1009.4
20260507192851 54 300 5.0 6.0 0.00 0.00 0.00 29 1009.5
20260507192347 54 344 4.0 5.0 0.00 0.00 0.00 28 1009.3
20260507191844 53 254 3.0 5.0 0.00 0.00 0.00 29 1009.4
20260507191340 54 272 3.0 3.0 0.00 0.00 0.00 31 1009.5
20260507190837 53 285 4.0 6.0 0.00 0.00 0.00 31 1009.9
20260507190336 53 219 4.0 6.0 0.00 0.00 0.00 30 1009.8
20260507185834 53 209 1.0 3.0 0.00 0.00 0.00 30 1009.6
20260507185331 53 280 3.0 3.0 0.00 0.00 0.00 29 1009.6
20260507184828 53 261 4.0 5.0 0.00 0.00 0.00 30 1009.8
20260507184326 53 221 0.0 1.0 0.00 0.00 0.00 30 1009.9
20260507183822 53 260 5.0 6.0 0.00 0.00 0.00 30 1010.0
20260507183319 53 35 5.0 8.0 0.00 0.00 0.00 32 1009.8
20260507182817 53 24 8.0 11.0 0.00 0.00 0.00 32 1009.6
20260507182312 52 202 1.0 2.0 0.00 0.00 0.00 30 1010.0
20260507181809 53 3 2.0 3.0 0.00 0.00 0.00 30 1010.1
20260507181305 52 355 8.0 11.0 0.00 0.00 0.00 32 1009.9
20260507180802 52 6 5.0 6.0 0.00 0.00 0.00 30 1009.9
20260507180259 52 146 2.0 2.0 0.00 0.00 0.00 30 1010.1
20260507175754 51 301 3.0 5.0 0.00 0.00 0.00 31 1010.0
20260507175251 51 21 4.0 7.0 0.00 0.00 0.00 34 1010.2
20260507174748 52 230 4.0 5.0 0.00 0.00 0.00 31 1010.4
20260507174247 51 304 3.0 3.0 0.00 0.00 0.00 32 1010.2
20260507173744 51 41 3.0 3.0 0.00 0.00 0.00 32 1010.4
20260507173241 51 277 3.0 3.0 0.00 0.00 0.00 33 1010.4
20260507172737 51 152 1.0 1.0 0.00 0.00 0.00 33 1010.4
20260507172234 51 278 3.0 5.0 0.00 0.00 0.00 33 1010.5
20260507171734 50 253 0.0 1.0 0.00 0.00 0.00 33 1010.4
20260507171232 50 40 4.0 6.0 0.00 0.00 0.00 33 1010.4
20260507170729 50 355 3.0 5.0 0.00 0.00 0.00 33 1010.7
20260507170226 51 310 5.0 6.0 0.00 0.00 0.00 33 1010.5
20260507165721 50 333 5.0 6.0 0.00 0.00 0.00 32 1010.6
20260507165218 51 216 0.0 1.0 0.00 0.00 0.00 30 1010.7